�N����,�����b,�ŏ������i�x�j,���ϕ����i�x�j,�ő啗���i�x�j,�ŏ�����(m/s),���ϕ���(m/s),�ő啗��(m/s),�C��(���j,���x�i���j,�C��(hPa),�~�J��(mm),�~�J����(�b�j,�~�J���x(mm/h),�ő�~�J���x(mm/h),�~�Ђ傤��(hit/���u),�~�Ђ傤����(�b�j,�~�Ђ傤���x(hit/���uh),�ő�~�Ђ傤���x(hit/���uh),�q�[�^���x(���j,�q�[�^�[�d���iV),�d���d���iV),�Q�Ɠd���iV)
2012/03/01,00:00:01,177,179,180,0.9,1.0,1.0,17.0,68.5,1009.3,0.00,0,0.0,////,0.0,0,0.0,////,15.8,0.0,12.3,3.513
2012/03/01,00:10:01,166,167,168,0.7,0.8,0.8,17.0,68.5,1009.4,0.00,0,0.0,////,0.0,0,0.0,////,15.6,0.0,12.3,3.513
2012/03/01,00:20:01,137,138,139,0.9,1.0,1.1,16.9,68.7,1009.1,0.00,0,0.0,////,0.0,0,0.0,////,15.5,0.0,12.3,3.511
2012/03/01,00:30:01,157,164,175,0.5,0.6,0.7,16.9,68.0,1009.2,0.00,0,0.0,////,0.0,0,0.0,////,15.5,0.0,12.3,3.511
2012/03/01,00:40:01,158,163,165,0.6,0.6,0.7,17.1,67.2,1009.2,0.00,0,0.0,////,0.0,0,0.0,////,15.6,0.0,12.3,3.513
2012/03/01,00:50:01,122,127,130,0.6,0.8,0.9,17.2,66.6,1009.1,0.00,0,0.0,////,0.0,0,0.0,////,15.6,0.0,12.3,3.513
2012/03/01,01:00:01,116,119,124,0.6,0.7,0.7,17.1,66.8,1009.0,0.00,0,0.0,////,0.0,0,0.0,////,15.6,0.0,12.3,3.513
2012/03/01,01:10:01,146,159,167,0.7,0.8,0.9,16.9,67.1,1008.9,0.00,0,0.0,////,0.0,0,0.0,////,15.5,0.0,12.3,3.511
2012/03/01,01:20:01,172,173,174,0.7,0.8,0.8,16.9,66.9,1008.9,0.00,0,0.0,////,0.0,0,0.0,////,15.1,0.0,12.3,3.513
2012/03/01,01:30:01,163,165,167,0.4,0.5,0.6,17.3,65.5,1009.0,0.00,0,0.0,////,0.0,0,0.0,////,15.5,0.0,12.3,3.513
2012/03/01,01:40:01,168,171,174,0.5,0.6,0.7,17.0,66.5,1009.0,0.00,0,0.0,////,0.0,0,0.0,////,15.5,0.0,12.3,3.513
2012/03/01,01:50:01,154,157,159,0.5,0.6,0.7,17.2,65.7,1009.0,0.00,0,0.0,////,0.0,0,0.0,////,15.3,0.0,12.3,3.513
2012/03/01,02:00:01,162,164,165,0.4,0.5,0.6,17.3,65.8,1009.0,0.00,0,0.0,////,0.0,0,0.0,////,15.5,0.0,12.3,3.511
2012/03/01,02:10:01,193,195,195,0.7,0.8,0.9,17.3,66.0,1009.0,0.00,0,0.0,////,0.0,0,0.0,////,16.0,0.0,12.3,3.511
2012/03/01,02:20:01,215,216,217,0.7,0.8,0.8,17.5,65.9,1009.0,0.00,0,0.0,////,0.0,0,0.0,////,16.2,0.0,12.3,3.513
2012/03/01,02:30:01,207,207,207,1.0,1.0,1.1,17.6,65.3,1009.0,0.00,0,0.0,////,0.0,0,0.0,////,16.5,0.0,12.3,3.513
2012/03/01,02:40:01,202,206,210,0.7,1.0,1.2,17.5,66.6,1009.0,0.00,0,0.0,////,0.0,0,0.0,////,16.5,0.0,12.3,3.511
2012/03/01,02:50:01,206,208,211,0.9,1.0,1.1,17.2,67.3,1008.9,0.00,0,0.0,////,0.0,0,0.0,////,16.2,0.0,12.2,3.514
2012/03/01,03:00:01,233,235,237,0.6,0.7,0.8,17.4,65.3,1008.9,0.00,0,0.0,////,0.0,0,0.0,////,16.3,0.0,12.3,3.513
2012/03/01,03:10:01,196,198,200,1.0,1.0,1.1,17.4,66.0,1008.7,0.00,0,0.0,////,0.0,0,0.0,////,16.3,0.0,12.3,3.513
2012/03/01,03:20:01,194,196,201,0.9,0.9,1.0,17.2,66.9,1008.5,0.00,0,0.0,////,0.0,0,0.0,////,16.0,0.0,12.3,3.511
2012/03/01,03:30:01,188,190,191,1.1,1.2,1.2,17.1,67.3,1008.4,0.00,0,0.0,////,0.0,0,0.0,////,15.8,0.0,12.3,3.513
2012/03/01,03:40:01,188,188,190,0.9,1.0,1.1,17.1,67.8,1008.4,0.00,0,0.0,////,0.0,0,0.0,////,16.0,0.0,12.3,3.513
2012/03/01,03:50:01,177,184,193,1.0,1.1,1.2,17.0,68.9,1008.2,0.00,0,0.0,////,0.0,0,0.0,////,15.8,0.0,12.3,3.516
2012/03/01,04:00:01,205,210,217,0.8,0.9,1.0,16.9,69.8,1008.1,0.00,0,0.0,////,0.0,0,0.0,////,15.6,0.0,12.3,3.513
2012/03/01,04:10:01,175,179,181,0.7,0.8,0.8,16.9,68.9,1008.1,0.00,0,0.0,////,0.0,0,0.0,////,15.5,0.0,12.3,3.511
2012/03/01,04:20:01,200,200,200,0.7,0.7,0.8,17.2,68.6,1008.3,0.00,0,0.0,////,0.0,0,0.0,////,15.5,0.0,12.3,3.514
2012/03/01,04:30:01,173,174,174,0.8,0.9,1.0,17.2,68.5,1008.2,0.00,0,0.0,////,0.0,0,0.0,////,15.6,0.0,12.3,3.513
2012/03/01,04:40:01,185,188,192,0.8,1.0,1.2,16.9,70.0,1008.1,0.00,0,0.0,////,0.0,0,0.0,////,15.5,0.0,12.3,3.511
2012/03/01,04:50:01,171,173,176,1.0,1.1,1.2,16.7,71.5,1008.1,0.00,0,0.0,////,0.0,0,0.0,////,15.0,0.0,12.4,3.513
2012/03/01,05:00:01,142,155,163,0.4,0.5,0.6,16.7,71.8,1008.1,0.00,0,0.0,////,0.0,0,0.0,////,15.1,0.0,12.3,3.511
2012/03/01,05:10:01,157,157,158,0.9,1.0,1.1,17.0,70.5,1008.2,0.00,0,0.0,////,0.0,0,0.0,////,15.3,0.0,12.3,3.511
2012/03/01,05:20:01,211,212,213,0.1,0.2,0.3,17.1,70.1,1008.4,0.00,0,0.0,////,0.0,0,0.0,////,15.5,0.0,12.3,3.511
2012/03/01,05:30:01,205,206,206,0.5,0.6,0.6,17.2,69.7,1008.5,0.00,0,0.0,////,0.0,0,0.0,////,15.8,0.0,12.3,3.513
2012/03/01,05:40:01,215,222,229,0.3,0.4,0.4,17.3,69.4,1008.7,0.00,0,0.0,////,0.0,0,0.0,////,16.0,0.0,12.3,3.513
2012/03/01,05:50:01,196,200,202,0.9,1.0,1.1,17.4,68.4,1008.7,0.00,0,0.0,////,0.0,0,0.0,////,16.2,0.0,12.3,3.514
2012/03/01,06:00:01,202,204,206,0.8,0.8,0.9,17.2,69.4,1008.8,0.00,0,0.0,////,0.0,0,0.0,////,16.2,0.0,12.3,3.511
2012/03/01,06:10:01,192,193,194,0.8,0.8,0.9,17.3,68.9,1008.9,0.00,0,0.0,////,0.0,0,0.0,////,16.0,0.0,12.3,3.513
2012/03/01,06:20:01,013,022,028,0.1,0.1,0.2,17.3,68.6,1008.9,0.00,0,0.0,////,0.0,0,0.0,////,15.6,0.0,12.3,3.516
2012/03/01,06:30:01,173,175,176,0.9,1.0,1.0,17.2,68.9,1009.0,0.00,0,0.0,////,0.0,0,0.0,////,15.5,0.0,12.3,3.513
2012/03/01,06:40:01,164,168,171,0.7,0.8,0.9,17.0,70.4,1008.8,0.00,0,0.0,////,0.0,0,0.0,////,15.5,0.0,12.3,3.513
2012/03/01,06:50:01,176,178,179,0.9,1.0,1.1,17.1,70.5,1009.0,0.00,0,0.0,////,0.0,0,0.0,////,15.3,0.0,12.3,3.513
2012/03/01,07:00:01,185,188,192,0.9,1.0,1.0,17.0,70.8,1008.9,0.00,0,0.0,////,0.0,0,0.0,////,15.6,0.0,12.3,3.511
2012/03/01,07:10:01,187,188,189,0.6,0.7,0.8,16.9,71.4,1009.0,0.00,0,0.0,////,0.0,0,0.0,////,15.6,0.0,12.3,3.511
2012/03/01,07:20:01,162,165,169,0.8,0.9,0.9,17.1,70.4,1009.0,0.00,0,0.0,////,0.0,0,0.0,////,15.8,0.0,12.3,3.513
2012/03/01,07:30:01,171,174,179,0.7,0.8,0.8,17.3,69.9,1009.0,0.00,0,0.0,////,0.0,0,0.0,////,16.3,0.0,12.3,3.513
2012/03/01,07:40:01,186,190,194,0.7,0.7,0.8,17.5,69.9,1009.2,0.00,0,0.0,////,0.0,0,0.0,////,17.0,0.0,12.3,3.513
2012/03/01,07:50:01,200,200,202,0.8,0.9,1.0,17.9,70.7,1009.4,0.00,0,0.0,////,0.0,0,0.0,////,17.4,0.0,12.3,3.511
2012/03/01,08:00:01,261,287,334,0.0,0.1,0.2,18.2,70.6,1009.4,0.00,0,0.0,////,0.0,0,0.0,////,18.6,0.0,12.3,3.513
2012/03/01,08:10:01,290,292,293,0.4,0.4,0.5,18.7,70.0,1009.7,0.00,0,0.0,////,0.0,0,0.0,////,19.3,0.0,12.3,3.513
2012/03/01,08:20:01,268,269,272,0.6,0.7,0.8,18.8,67.5,1010.1,0.00,0,0.0,////,0.0,0,0.0,////,20.5,0.0,12.3,3.513
2012/03/01,08:30:01,276,287,298,0.4,0.5,0.6,18.8,68.3,1010.3,0.00,0,0.0,////,0.0,0,0.0,////,19.1,0.0,12.2,3.514
2012/03/01,08:40:01,305,308,311,0.4,0.7,0.9,18.7,68.4,1010.4,0.00,0,0.0,////,0.0,0,0.0,////,19.1,0.0,12.3,3.511
2012/03/01,08:50:01,244,247,252,0.7,0.8,1.0,19.0,69.4,1010.4,0.00,0,0.0,////,0.0,0,0.0,////,20.0,0.0,12.3,3.511
2012/03/01,09:00:01,263,275,293,0.1,0.2,0.3,19.2,67.4,1010.6,0.00,0,0.0,////,0.0,0,0.0,////,20.5,0.0,12.3,3.513
2012/03/01,09:10:01,284,313,350,0.1,0.3,0.4,19.1,67.3,1010.6,0.00,0,0.0,////,0.0,0,0.0,////,20.1,0.0,12.3,3.513
2012/03/01,09:20:01,066,066,066,0.5,0.5,0.6,19.4,66.7,1010.7,0.00,0,0.0,////,0.0,0,0.0,////,21.0,0.0,12.3,3.511
2012/03/01,09:30:01,204,213,226,0.3,0.5,0.6,19.8,65.3,1010.5,0.00,0,0.0,////,0.0,0,0.0,////,22.5,0.0,12.3,3.513
2012/03/01,09:40:01,193,196,198,1.3,1.7,1.9,19.6,67.3,1010.4,0.00,0,0.0,////,0.0,0,0.0,////,20.8,0.0,12.3,3.510
2012/03/01,09:50:01,187,192,202,0.9,1.2,1.5,19.4,68.8,1010.4,0.00,0,0.0,////,0.0,0,0.0,////,20.1,0.0,12.2,3.513
2012/03/01,10:00:01,203,210,214,0.2,0.3,0.3,19.7,67.7,1010.4,0.00,0,0.0,////,0.0,0,0.0,////,21.0,0.0,12.3,3.513
2012/03/01,10:10:01,258,270,294,0.3,0.4,0.6,20.0,66.8,1010.8,0.00,0,0.0,////,0.0,0,0.0,////,21.3,0.0,12.3,3.511
2012/03/01,10:20:01,218,220,223,1.4,1.6,1.8,19.8,67.6,1010.8,0.00,0,0.0,////,0.0,0,0.0,////,20.6,0.0,12.3,3.511
2012/03/01,10:30:01,238,241,244,1.2,1.3,1.5,19.5,69.7,1010.9,0.00,0,0.0,////,0.0,0,0.0,////,19.3,0.0,12.2,3.513
2012/03/01,10:40:01,235,237,240,0.3,0.4,0.6,19.5,71.2,1010.7,0.00,20,0.0,////,0.0,0,0.0,////,19.6,0.0,12.3,3.513
2012/03/01,10:50:01,162,181,210,0.1,0.1,0.2,19.8,74.7,1010.8,0.15,540,0.8,////,0.0,0,0.0,////,18.9,0.0,12.3,3.513
2012/03/01,11:00:01,227,229,232,0.6,0.8,0.9,19.6,75.4,1010.8,0.03,400,0.0,////,0.0,0,0.0,////,18.6,0.0,12.3,3.513
2012/03/01,11:10:01,194,196,199,0.4,0.5,0.6,19.4,74.3,1010.7,0.00,0,0.0,////,0.0,0,0.0,////,19.4,0.0,12.3,3.513
2012/03/01,11:20:01,181,197,208,0.5,0.6,0.6,19.6,73.5,1010.6,0.00,0,0.0,////,0.0,0,0.0,////,20.3,0.0,12.3,3.511
2012/03/01,11:30:01,248,271,293,0.6,0.7,0.7,19.7,74.1,1010.7,0.00,0,0.0,////,0.0,0,0.0,////,20.1,0.0,12.3,3.513
2012/03/01,11:40:01,130,146,162,0.4,0.5,0.6,19.6,74.8,1010.4,0.00,10,0.0,////,0.0,0,0.0,////,19.3,0.0,12.2,3.513
2012/03/01,11:50:01,253,256,259,0.9,1.0,1.0,19.4,75.3,1010.4,0.00,0,0.0,////,0.0,0,0.0,////,19.4,0.0,12.3,3.514
2012/03/01,12:00:01,228,245,275,0.2,0.3,0.4,19.5,75.7,1010.4,0.03,240,0.1,////,0.0,0,0.0,////,19.3,0.0,12.3,3.514
2012/03/01,12:10:01,137,140,143,0.7,0.8,1.0,19.2,75.7,1010.2,0.00,10,0.0,////,0.0,0,0.0,////,18.7,0.0,12.3,3.513
2012/03/01,12:20:01,126,133,146,0.5,0.6,0.6,19.2,75.6,1010.0,0.01,180,0.0,////,0.0,0,0.0,////,18.9,0.0,12.3,3.511
2012/03/01,12:30:01,137,153,161,0.7,0.9,1.1,19.2,74.9,1009.8,0.00,100,0.1,////,0.0,0,0.0,////,18.9,0.0,12.3,3.514
2012/03/01,12:40:01,143,146,150,0.3,0.4,0.4,19.4,76.7,1009.7,0.00,10,0.0,////,0.0,0,0.0,////,19.1,0.0,12.3,3.513
2012/03/01,12:50:01,058,063,067,0.4,0.6,0.7,19.3,78.0,1009.5,0.00,0,0.0,////,0.0,0,0.0,////,20.0,0.0,12.3,3.511
2012/03/01,13:00:01,096,096,097,1.7,1.8,1.9,19.8,78.3,1009.3,0.00,0,0.0,////,0.0,0,0.0,////,21.5,0.0,12.3,3.511
2012/03/01,13:10:01,148,162,169,0.4,0.5,0.6,20.2,75.6,1009.1,0.00,0,0.0,////,0.0,0,0.0,////,24.3,0.0,12.3,3.513
2012/03/01,13:20:01,198,201,206,0.6,1.0,1.4,21.0,71.6,1009.0,0.00,0,0.0,////,0.0,0,0.0,////,26.5,0.0,12.3,3.513
2012/03/01,13:30:01,149,224,304,0.2,0.4,0.5,21.2,64.6,1008.9,0.00,0,0.0,////,0.0,0,0.0,////,27.2,0.0,12.3,3.513
2012/03/01,13:40:01,333,338,342,0.8,0.8,0.9,21.3,64.5,1008.7,0.00,0,0.0,////,0.0,0,0.0,////,25.3,0.0,12.3,3.513
2012/03/01,13:50:01,031,040,052,1.2,1.3,1.4,20.7,69.6,1008.5,0.00,0,0.0,////,0.0,0,0.0,////,23.9,0.0,12.3,3.511
2012/03/01,14:00:01,040,050,056,2.1,2.2,2.3,20.4,72.2,1008.2,0.00,0,0.0,////,0.0,0,0.0,////,22.7,0.0,12.3,3.511
2012/03/01,14:10:01,213,216,217,0.6,0.7,0.8,20.8,72.4,1008.1,0.00,0,0.0,////,0.0,0,0.0,////,23.1,0.0,12.3,3.511
2012/03/01,14:20:01,084,094,101,1.8,2.0,2.2,21.1,69.8,1007.9,0.00,0,0.0,////,0.0,0,0.0,////,23.9,0.0,12.3,3.511
2012/03/01,14:30:01,083,084,086,2.3,2.4,2.6,20.4,72.7,1007.8,0.00,0,0.0,////,0.0,0,0.0,////,21.8,0.0,12.3,3.511
2012/03/01,14:40:01,064,076,087,0.9,1.1,1.3,20.3,74.0,1007.5,0.00,0,0.0,////,0.0,0,0.0,////,21.2,0.0,12.3,3.513
2012/03/01,14:50:01,112,122,130,0.8,1.2,1.5,20.3,75.4,1007.5,0.00,0,0.0,////,0.0,0,0.0,////,20.8,0.0,12.3,3.511
2012/03/01,15:00:01,096,100,104,1.5,1.6,1.8,20.5,74.4,1007.3,0.00,0,0.0,////,0.0,0,0.0,////,21.5,0.0,12.3,3.511
2012/03/01,15:10:01,111,140,183,1.0,1.0,1.1,20.7,74.3,1007.3,0.00,0,0.0,////,0.0,0,0.0,////,21.5,0.0,12.3,3.511
2012/03/01,15:20:01,086,098,113,0.8,0.9,1.0,21.2,74.2,1007.1,0.00,0,0.0,////,0.0,0,0.0,////,22.7,0.0,12.3,3.513
2012/03/01,15:30:01,218,231,240,0.5,0.7,1.0,22.1,69.0,1007.0,0.00,0,0.0,////,0.0,0,0.0,////,25.3,0.0,12.3,3.513
2012/03/01,15:40:01,229,242,257,0.3,0.5,0.8,22.9,65.2,1007.1,0.00,0,0.0,////,0.0,0,0.0,////,26.8,0.0,12.3,3.511
2012/03/01,15:50:01,257,262,269,2.1,2.2,2.3,22.7,64.8,1007.1,0.00,0,0.0,////,0.0,0,0.0,////,25.5,0.0,12.3,3.511
2012/03/01,16:00:01,194,199,201,0.8,1.0,1.1,22.0,68.4,1007.0,0.00,0,0.0,////,0.0,0,0.0,////,23.4,0.0,12.3,3.514
2012/03/01,16:10:01,205,217,225,1.3,1.5,1.7,21.5,70.1,1007.0,0.00,0,0.0,////,0.0,0,0.0,////,22.4,0.0,12.3,3.511
2012/03/01,16:20:01,241,243,247,1.6,1.7,1.8,21.2,71.9,1007.0,0.00,0,0.0,////,0.0,0,0.0,////,21.8,0.0,12.3,3.513
2012/03/01,16:30:01,197,201,205,1.1,1.2,1.3,21.2,73.4,1006.9,0.00,0,0.0,////,0.0,0,0.0,////,21.8,0.0,12.2,3.511
2012/03/01,16:40:01,215,220,225,0.8,1.0,1.2,21.6,72.9,1007.0,0.00,0,0.0,////,0.0,0,0.0,////,22.7,0.0,12.3,3.513
2012/03/01,16:50:01,149,152,155,1.2,1.4,1.6,21.7,71.5,1007.1,0.00,0,0.0,////,0.0,0,0.0,////,22.7,0.0,12.3,3.513
2012/03/01,17:00:01,158,163,167,0.9,1.0,1.0,21.5,71.0,1007.1,0.00,0,0.0,////,0.0,0,0.0,////,22.2,0.0,12.3,3.513
2012/03/01,17:10:01,186,191,195,0.8,1.0,1.1,21.4,71.4,1007.1,0.00,0,0.0,////,0.0,0,0.0,////,21.5,0.0,12.3,3.511
2012/03/01,17:20:01,110,120,126,0.8,0.8,0.9,21.3,72.0,1007.2,0.00,0,0.0,////,0.0,0,0.0,////,21.2,0.0,12.3,3.511
2012/03/01,17:30:01,184,223,265,0.0,0.1,0.2,21.3,73.1,1007.2,0.00,0,0.0,////,0.0,0,0.0,////,20.8,0.0,12.3,3.513
2012/03/01,17:40:01,328,330,332,0.4,0.5,0.6,21.3,74.0,1007.3,0.00,0,0.0,////,0.0,0,0.0,////,21.0,0.0,12.3,3.513
2012/03/01,17:50:01,139,155,169,0.1,0.2,0.3,21.2,73.6,1007.3,0.00,0,0.0,////,0.0,0,0.0,////,21.0,0.0,12.3,3.513
2012/03/01,18:00:01,289,302,317,0.3,0.4,0.5,21.2,73.8,1007.3,0.00,0,0.0,////,0.0,0,0.0,////,20.6,0.0,12.3,3.514
2012/03/01,18:10:01,317,321,323,0.4,0.5,0.6,20.8,75.6,1007.2,0.00,0,0.0,////,0.0,0,0.0,////,20.1,0.0,12.3,3.511
2012/03/01,18:20:01,086,100,115,0.1,0.2,0.4,20.6,77.8,1007.3,0.00,0,0.0,////,0.0,0,0.0,////,19.8,0.0,12.4,3.511
2012/03/01,18:30:01,102,106,108,0.8,0.9,1.1,20.4,78.5,1007.3,0.00,0,0.0,////,0.0,0,0.0,////,19.4,0.0,12.2,3.511
2012/03/01,18:40:01,162,173,185,0.6,0.7,0.7,20.2,79.4,1007.3,0.00,0,0.0,////,0.0,0,0.0,////,19.3,0.0,12.3,3.513
2012/03/01,18:50:01,188,200,208,0.4,0.5,0.6,20.1,79.6,1007.3,0.00,0,0.0,////,0.0,0,0.0,////,18.9,0.0,12.3,3.513
2012/03/01,19:00:01,179,180,182,0.6,0.7,0.8,20.1,79.4,1007.4,0.00,0,0.0,////,0.0,0,0.0,////,19.1,0.0,12.3,3.511
2012/03/01,19:10:01,206,210,219,0.4,0.6,0.7,20.0,79.1,1007.5,0.00,0,0.0,////,0.0,0,0.0,////,18.9,0.0,12.3,3.511
2012/03/01,19:20:01,193,195,196,0.7,0.8,0.9,20.0,79.3,1007.5,0.00,0,0.0,////,0.0,0,0.0,////,18.9,0.0,12.3,3.513
2012/03/01,19:30:01,180,191,200,1.1,1.2,1.3,19.9,79.1,1007.5,0.00,0,0.0,////,0.0,0,0.0,////,18.9,0.0,12.3,3.513
2012/03/01,19:40:01,183,192,203,0.6,0.7,0.9,19.9,79.3,1007.5,0.00,0,0.0,////,0.0,0,0.0,////,18.9,0.0,12.3,3.513
2012/03/01,19:50:01,175,190,207,0.6,0.8,0.9,19.8,79.6,1007.5,0.00,0,0.0,////,0.0,0,0.0,////,18.6,0.0,12.3,3.511
2012/03/01,20:00:01,198,215,231,0.9,1.0,1.2,19.8,79.5,1007.6,0.00,0,0.0,////,0.0,0,0.0,////,18.6,0.0,12.1,3.511
2012/03/01,20:10:01,190,195,202,0.4,0.6,0.7,19.8,79.4,1007.6,0.00,0,0.0,////,0.0,0,0.0,////,18.6,0.0,12.3,3.511
2012/03/01,20:20:01,220,231,247,0.0,0.1,0.2,19.8,79.5,1007.7,0.00,0,0.0,////,0.0,0,0.0,////,18.6,0.0,12.3,3.513
2012/03/01,20:30:01,117,118,119,0.4,0.5,0.5,19.8,79.3,1007.7,0.00,0,0.0,////,0.0,0,0.0,////,18.4,0.0,12.3,3.511
2012/03/01,20:40:01,103,104,106,0.6,0.6,0.7,19.8,79.9,1007.7,0.00,0,0.0,////,0.0,0,0.0,////,18.4,0.0,12.4,3.513
2012/03/01,20:50:01,142,148,157,0.5,0.6,0.7,19.8,80.5,1007.7,0.00,0,0.0,////,0.0,0,0.0,////,18.2,0.0,12.3,3.513
2012/03/01,21:00:01,173,176,178,0.4,0.5,0.6,19.6,81.6,1007.7,0.00,0,0.0,////,0.0,0,0.0,////,18.1,0.0,12.3,3.513
2012/03/01,21:10:01,115,118,122,0.7,0.8,1.0,19.6,81.8,1007.8,0.00,0,0.0,////,0.0,0,0.0,////,17.7,0.0,12.3,3.514
2012/03/01,21:20:01,153,159,168,0.8,0.9,1.0,19.5,81.5,1007.8,0.00,0,0.0,////,0.0,0,0.0,////,17.9,0.0,12.3,3.511
2012/03/01,21:30:01,215,216,217,0.9,1.0,1.1,19.6,81.6,1007.9,0.00,0,0.0,////,0.0,0,0.0,////,18.2,0.0,12.3,3.513
2012/03/01,21:40:01,259,259,260,0.5,0.6,0.6,19.9,80.7,1008.0,0.00,0,0.0,////,0.0,0,0.0,////,18.6,0.0,12.3,3.514
2012/03/01,21:50:01,225,239,257,0.6,0.7,0.8,20.0,79.9,1007.9,0.00,0,0.0,////,0.0,0,0.0,////,19.1,0.0,12.3,3.511
2012/03/01,22:00:01,256,258,263,0.8,0.9,1.0,20.0,79.7,1007.9,0.00,0,0.0,////,0.0,0,0.0,////,18.7,0.0,12.3,3.511
2012/03/01,22:10:01,257,259,261,0.6,0.6,0.7,20.0,80.5,1007.9,0.00,0,0.0,////,0.0,0,0.0,////,18.4,0.0,12.3,3.511
2012/03/01,22:20:01,198,199,200,0.8,0.8,0.9,19.9,81.1,1007.8,0.00,0,0.0,////,0.0,0,0.0,////,18.1,0.0,12.3,3.511
2012/03/01,22:30:01,163,168,173,0.4,0.5,0.5,19.7,81.9,1007.8,0.00,0,0.0,////,0.0,0,0.0,////,17.9,0.0,12.3,3.513
2012/03/01,22:40:01,196,199,201,0.8,0.9,1.0,19.6,82.6,1007.8,0.00,0,0.0,////,0.0,0,0.0,////,17.7,0.0,12.3,3.511
2012/03/01,22:50:01,138,144,152,0.1,0.2,0.3,19.5,83.1,1007.7,0.00,0,0.0,////,0.0,0,0.0,////,18.1,0.0,12.3,3.511
2012/03/01,23:00:01,179,183,186,0.1,0.2,0.2,19.5,83.3,1007.7,0.00,0,0.0,////,0.0,0,0.0,////,18.1,0.0,12.3,3.511
2012/03/01,23:10:01,203,206,212,0.3,0.4,0.4,19.4,83.5,1007.7,0.00,0,0.0,////,0.0,0,0.0,////,17.7,0.0,12.3,3.513
2012/03/01,23:20:01,211,222,233,0.6,0.8,0.9,19.6,83.8,1007.8,0.00,0,0.0,////,0.0,0,0.0,////,17.7,0.0,12.3,3.513
2012/03/01,23:30:01,238,241,245,0.8,0.9,1.0,19.8,83.4,1007.8,0.00,0,0.0,////,0.0,0,0.0,////,18.1,0.0,12.3,3.513
2012/03/01,23:40:01,212,214,219,0.3,0.4,0.5,19.8,83.3,1007.8,0.00,0,0.0,////,0.0,0,0.0,////,18.2,0.0,12.3,3.511
2012/03/01,23:50:01,207,216,231,1.3,1.5,1.8,19.9,83.1,1007.9,0.00,0,0.0,////,0.0,0,0.0,////,18.2,0.0,12.3,3.511
2012/03/02,00:00:01,196,200,207,1.7,1.9,2.1,19.8,83.5,1007.8,0.00,0,0.0,////,0.0,0,0.0,////,18.2,0.0,12.3,3.514
2012/03/02,00:10:01,204,214,226,1.5,1.6,1.6,19.7,84.4,1007.8,0.00,0,0.0,////,0.0,0,0.0,////,18.1,0.0,12.3,3.514
2012/03/02,00:20:01,191,197,210,1.7,1.8,2.0,19.7,84.7,1007.7,0.00,0,0.0,////,0.0,0,0.0,////,18.6,0.0,12.3,3.514
2012/03/02,00:30:01,204,210,216,1.7,2.0,2.2,19.6,85.2,1007.6,0.00,0,0.0,////,0.0,0,0.0,////,18.2,0.0,12.3,3.511
2012/03/02,00:40:01,179,189,202,1.5,1.6,1.7,19.6,85.7,1007.6,0.00,0,0.0,////,0.0,0,0.0,////,18.1,0.0,12.3,3.513
2012/03/02,00:50:01,214,218,221,1.4,1.6,1.8,19.7,85.9,1007.6,0.00,0,0.0,////,0.0,0,0.0,////,18.2,0.0,12.1,3.514
2012/03/02,01:00:01,213,224,233,1.0,1.3,1.5,19.7,86.1,1007.6,0.00,0,0.0,////,0.0,0,0.0,////,18.2,0.0,12.3,3.513
2012/03/02,01:10:01,196,198,201,1.2,1.4,1.5,19.6,86.3,1007.5,0.00,0,0.0,////,0.0,0,0.0,////,18.2,0.0,12.3,3.511
2012/03/02,01:20:01,192,197,201,1.7,1.8,1.9,19.6,86.6,1007.5,0.00,0,0.0,////,0.0,0,0.0,////,18.1,0.0,12.3,3.513
2012/03/02,01:30:01,167,184,203,0.8,0.9,1.1,19.5,86.7,1007.6,0.00,0,0.0,////,0.0,0,0.0,////,18.2,0.0,12.3,3.511
2012/03/02,01:40:01,210,213,215,1.6,1.7,1.7,19.5,87.1,1007.6,0.00,0,0.0,////,0.0,0,0.0,////,18.1,0.0,12.3,3.513
2012/03/02,01:50:01,194,200,208,0.9,1.2,1.6,19.6,86.9,1007.8,0.00,0,0.0,////,0.0,0,0.0,////,18.2,0.0,12.3,3.515
2012/03/02,02:00:01,201,203,206,1.0,1.1,1.3,19.5,86.6,1007.7,0.00,0,0.0,////,0.0,0,0.0,////,18.7,0.0,12.3,3.513
2012/03/02,02:10:01,175,176,178,0.8,0.9,0.9,19.4,87.1,1007.6,0.00,0,0.0,////,0.0,0,0.0,////,17.9,0.0,12.3,3.513
2012/03/02,02:20:01,176,184,191,1.4,1.5,1.7,19.3,87.4,1007.7,0.00,0,0.0,////,0.0,0,0.0,////,17.9,0.0,12.3,3.513
2012/03/02,02:30:01,210,218,226,0.4,0.6,0.8,19.5,87.7,1007.6,0.00,0,0.0,////,0.0,0,0.0,////,17.9,0.0,12.3,3.511
2012/03/02,02:40:01,210,215,218,1.5,1.7,1.8,19.6,87.7,1007.5,0.00,0,0.0,////,0.0,0,0.0,////,18.1,0.0,12.3,3.513
2012/03/02,02:50:01,211,218,225,1.3,1.5,1.7,19.7,87.3,1007.3,0.00,0,0.0,////,0.0,0,0.0,////,18.2,0.0,12.3,3.513
2012/03/02,03:00:01,205,213,220,1.1,1.2,1.3,19.7,87.5,1007.2,0.00,0,0.0,////,0.0,0,0.0,////,18.2,0.0,12.3,3.513
2012/03/02,03:10:01,217,235,246,1.3,1.5,1.8,19.8,87.5,1007.2,0.00,0,0.0,////,0.0,0,0.0,////,18.2,0.0,12.3,3.511
2012/03/02,03:20:01,198,204,212,1.2,1.3,1.4,20.0,87.2,1007.2,0.00,0,0.0,////,0.0,0,0.0,////,18.7,0.0,12.3,3.513
2012/03/02,03:30:01,201,213,224,2.0,2.3,2.6,20.1,86.8,1007.1,0.00,0,0.0,////,0.0,0,0.0,////,18.9,0.0,12.3,3.511
2012/03/02,03:40:01,216,226,240,0.9,1.2,1.7,20.1,86.6,1006.9,0.00,0,0.0,////,0.0,0,0.0,////,19.1,0.0,12.3,3.513
2012/03/02,03:50:01,196,204,209,2.5,2.8,3.0,20.0,86.6,1006.7,0.00,0,0.0,////,0.0,0,0.0,////,18.7,0.0,12.4,3.513
2012/03/02,04:00:01,191,192,194,1.4,2.1,2.8,20.1,86.8,1006.6,0.00,0,0.0,////,0.0,0,0.0,////,18.9,0.0,12.3,3.511
2012/03/02,04:10:01,204,213,225,2.5,2.8,3.0,20.3,87.0,1006.6,0.00,0,0.0,////,0.0,0,0.0,////,19.1,0.0,12.3,3.511
2012/03/02,04:20:01,229,235,241,1.9,2.1,2.2,20.5,86.1,1006.6,0.00,0,0.0,////,0.0,0,0.0,////,19.4,0.0,12.3,3.513
2012/03/02,04:30:01,218,220,221,2.0,2.1,2.2,20.6,85.7,1006.6,0.00,0,0.0,////,0.0,0,0.0,////,19.6,0.0,12.3,3.511
2012/03/02,04:40:01,233,244,252,1.1,1.6,1.9,20.6,86.1,1006.6,0.00,0,0.0,////,0.0,0,0.0,////,19.6,0.0,12.4,3.513
2012/03/02,04:50:01,181,193,200,0.8,1.0,1.3,20.6,86.4,1006.6,0.00,0,0.0,////,0.0,0,0.0,////,19.8,0.0,12.3,3.511
2012/03/02,05:00:01,199,207,213,1.8,2.0,2.3,20.6,86.5,1006.7,0.00,0,0.0,////,0.0,0,0.0,////,19.6,0.0,12.3,3.511
2012/03/02,05:10:01,174,195,209,1.6,1.9,2.1,20.6,86.7,1006.6,0.00,0,0.0,////,0.0,0,0.0,////,19.6,0.0,12.3,3.513
2012/03/02,05:20:01,188,196,209,1.3,1.5,1.7,20.5,86.7,1006.7,0.00,0,0.0,////,0.0,0,0.0,////,19.6,0.0,12.4,3.513
2012/03/02,05:30:01,200,206,208,1.2,1.6,2.0,20.5,86.6,1006.8,0.00,0,0.0,////,0.0,0,0.0,////,19.6,0.0,12.3,3.513
2012/03/02,05:40:01,201,207,212,1.4,1.5,1.6,20.6,86.4,1006.8,0.00,0,0.0,////,0.0,0,0.0,////,19.6,0.0,12.2,3.511
2012/03/02,05:50:01,203,213,222,1.6,1.7,1.8,20.6,86.1,1006.9,0.00,0,0.0,////,0.0,0,0.0,////,19.6,0.0,12.4,3.513
2012/03/02,06:00:01,169,175,178,1.1,1.2,1.3,20.6,86.2,1006.9,0.00,0,0.0,////,0.0,0,0.0,////,19.4,0.0,12.3,3.511
2012/03/02,06:10:01,191,204,211,1.3,1.4,1.6,20.6,86.4,1006.9,0.00,0,0.0,////,0.0,0,0.0,////,19.6,0.0,12.3,3.513
2012/03/02,06:20:01,187,189,191,1.7,1.8,1.9,20.6,86.6,1007.0,0.00,0,0.0,////,0.0,0,0.0,////,19.6,0.0,12.3,3.511
2012/03/02,06:30:01,215,217,219,1.1,1.2,1.3,20.6,86.7,1007.0,0.00,0,0.0,////,0.0,0,0.0,////,19.4,0.0,12.3,3.513
2012/03/02,06:40:01,180,183,188,1.7,1.8,2.0,20.6,86.7,1007.2,0.00,0,0.0,////,0.0,0,0.0,////,19.6,0.0,12.4,3.513
2012/03/02,06:50:01,228,231,234,0.7,0.8,0.9,20.7,86.7,1007.3,0.00,0,0.0,////,0.0,0,0.0,////,19.8,0.0,12.3,3.513
2012/03/02,07:00:01,235,247,264,0.9,1.1,1.2,20.8,86.5,1007.5,0.00,0,0.0,////,0.0,0,0.0,////,19.8,0.0,12.3,3.513
2012/03/02,07:10:01,164,167,173,1.1,1.1,1.2,20.8,86.2,1007.5,0.00,0,0.0,////,0.0,0,0.0,////,19.8,0.0,12.3,3.511
2012/03/02,07:20:01,173,180,184,1.3,1.5,1.7,20.8,86.1,1007.5,0.00,0,0.0,////,0.0,0,0.0,////,20.0,0.0,12.3,3.511
2012/03/02,07:30:01,187,201,213,1.4,1.6,1.7,20.9,85.8,1007.5,0.00,0,0.0,////,0.0,0,0.0,////,20.1,0.0,12.4,3.513
2012/03/02,07:40:01,200,210,218,2.4,2.7,2.9,21.0,85.3,1007.6,0.00,0,0.0,////,0.0,0,0.0,////,20.5,0.0,12.3,3.511
2012/03/02,07:50:01,190,201,210,1.1,1.2,1.5,21.2,84.5,1007.6,0.00,0,0.0,////,0.0,0,0.0,////,20.8,0.0,12.3,3.513
2012/03/02,08:00:01,210,212,216,2.3,2.5,2.8,21.3,83.7,1007.8,0.00,0,0.0,////,0.0,0,0.0,////,21.3,0.0,12.3,3.513
2012/03/02,08:10:01,243,247,253,0.8,1.1,1.3,21.4,83.6,1007.7,0.00,0,0.0,////,0.0,0,0.0,////,21.7,0.0,12.3,3.511
2012/03/02,08:20:01,235,242,253,1.1,1.2,1.5,21.5,82.9,1008.0,0.00,0,0.0,////,0.0,0,0.0,////,21.8,0.0,12.4,3.513
2012/03/02,08:30:01,179,189,194,1.6,2.0,2.1,21.6,83.6,1008.0,0.00,0,0.0,////,0.0,0,0.0,////,21.7,0.0,12.2,3.513
2012/03/02,08:40:01,208,218,226,0.8,0.9,1.2,21.7,83.3,1008.1,0.00,0,0.0,////,0.0,0,0.0,////,22.4,0.0,12.3,3.511
2012/03/02,08:50:01,202,214,223,1.7,2.0,2.6,21.7,83.4,1008.2,0.00,0,0.0,////,0.0,0,0.0,////,22.0,0.0,12.4,3.513
2012/03/02,09:00:01,248,259,280,2.4,3.1,3.6,21.6,83.5,1008.2,0.00,0,0.0,////,0.0,0,0.0,////,21.7,0.0,12.3,3.513
2012/03/02,09:10:01,199,210,222,2.3,2.7,3.0,21.6,83.9,1008.3,0.00,0,0.0,////,0.0,0,0.0,////,21.7,0.0,12.3,3.513
2012/03/02,09:20:01,224,231,242,1.9,2.2,2.6,21.5,84.5,1008.2,0.00,0,0.0,////,0.0,0,0.0,////,21.5,0.0,12.3,3.511
2012/03/02,09:30:01,209,222,237,1.1,1.3,1.6,21.4,84.9,1008.2,0.00,0,0.0,////,0.0,0,0.0,////,21.3,0.0,12.3,3.510
2012/03/02,09:40:01,210,223,232,1.3,1.5,1.7,21.4,85.4,1008.2,0.00,0,0.0,////,0.0,0,0.0,////,21.3,0.0,12.3,3.511
2012/03/02,09:50:01,230,254,267,1.3,1.5,1.7,21.3,85.8,1008.2,0.00,0,0.0,////,0.0,0,0.0,////,21.7,0.0,12.3,3.511
2012/03/02,10:00:01,229,237,241,2.1,2.2,2.3,21.4,86.2,1008.1,0.00,0,0.0,////,0.0,0,0.0,////,21.8,0.0,12.4,3.511
2012/03/02,10:10:01,191,211,228,1.6,1.7,1.8,21.6,85.4,1008.1,0.00,0,0.0,////,0.0,0,0.0,////,22.7,0.0,12.3,3.511
2012/03/02,10:20:01,228,233,240,2.1,2.4,2.6,21.9,83.6,1008.0,0.00,0,0.0,////,0.0,0,0.0,////,23.9,0.0,12.2,3.511
2012/03/02,10:30:01,199,200,202,2.4,2.7,3.2,22.2,82.4,1008.1,0.00,0,0.0,////,0.0,0,0.0,////,24.3,0.0,12.3,3.513
2012/03/02,10:40:01,193,203,213,1.6,2.8,4.0,22.4,81.0,1007.9,0.00,0,0.0,////,0.0,0,0.0,////,24.8,0.0,12.3,3.513